Temperature
13 13 14 14 14 15 15 16 16 17 18 17 16 15 15 15 15 15 15 16 16 16 16 16 16 16 16 16 16 16 16 16 16 16 16 16 16 16
12 12 13 13 14 14 14 14 15 16 17 17 16 15 15 15 15 15 15 15 15 15 16 16 16 16 16 16 16 16 16 16 16 16 16 16 16 16
11 11 12 12 13 13 13 14 14 14 15 16 15 15 14 14 14 15 14 14 14 15 15 15 15 15 15 15 15 16 16 16 16 16 16 16 16 16
10 11 11 11 12 12 12 13 13 13 14 14 15 14 14 14 14 14 14 14 14 14 14 15 15 15 15 15 15 15 15 15 16 16 16 16 16 16
10 10 10 10 11 11 12 12 12 13 13 13 14 14 14 14 14 13 13 13 13 14 14 14 14 14 14 15 15 15 15 15 15 15 15 15 15 15
10 10 10 10 10 10 11 11 12 12 12 13 13 13 13 13 13 13 13 13 13 13 13 13 13 14 14 14 14 14 15 15 15 15 15 15 15 15
9 9 9 10 10 10 10 11 11 11 12 12 13 13 13 13 13 13 13 12 12 12 12 12 13 13 13 13 14 14 14 14 14 14 14 14 14 14
9 9 9 9 9 9 10 10 10 10 11 12 12 13 13 13 13 12 12 12 12 12 12 12 12 12 12 12 13 13 13 13 13 13 14 13 13 13
9 9 9 10 9 9 9 9 10 10 10 11 11 12 12 12 12 12 12 12 12 12 11 11 11 11 11 12 12 12 12 13 13 13 13 13 13 13
9 9 9 9 9 9 9 9 9 10 10 10 11 11 12 12 12 12 12 12 12 11 11 11 10 10 11 11 11 11 12 12 12 12 12 12 12 12
8 9 9 9 9 8 8 9 9 9 10 10 10 11 11 11 12 12 11 11 11 11 11 10 10 10 10 10 11 11 11 11 11 11 11 11 11 11
8 8 8 8 8 8 8 8 9 9 10 10 10 10 11 11 11 12 12 11 11 10 10 10 10 10 9 9 10 10 10 10 10 10 10 10 10 10
8 9 9 8 8 8 8 8 8 9 9 9 10 10 10 11 11 11 11 11 12 11 11 10 10 10 10 9 8 9 9 9 9 9 9 9 9 9
8 8 9 8 8 8 8 8 8 8 9 9 10 10 10 11 11 11 11 11 11 12 12 12 11 11 10 9 8 8 8 8 8 8 9 9 9 9
8 8 8 8 8 8 8 8 8 8 8 9 10 10 10 11 11 11 11 11 11 11 11 11 11 11 11 10 9 8 8 8 8 8 8 8 8 8
7 7 7 8 7 7 7 8 8 8 8 9 9 10 10 10 10 10 10 10 10 10 10 10 11 11 11 10 10 9 9 8 8 8 8 8 8 8
7 7 7 7 7 7 7 7 7 8 8 8 9 9 10 10 10 10 10 10 10 10 9 9 10 10 10 10 10 10 9 9 8 8 8 8 8 8
7 7 7 7 7 7 7 7 8 8 8 8 9 9 9 10 10 10 10 10 10 10 9 9 9 9 9 9 10 10 9 9 9 8 8 8 8 8
6 7 7 7 7 7 8 8 8 8 8 8 8 9 9 9 10 10 10 10 9 9 9 9 10 10 10 10 9 9 9 9 9 8 8 9 9 8
6 6 7 7 7 7 7 8 8 8 8 8 8 9 9 9 9 9 9 9 9 10 9 10 10 10 11 10 10 9 9 9 9 9 9 9 9 9
6 7 7 7 7 7 7 7 7 8 8 8 8 8 9 9 9 9 9 9 9 9 9 10 10 10 10 10 10 9 9 9 9 9 9 9 9 9
7 7 7 7 7 7 7 7 7 7 8 8 8 8 8 9 9 9 9 9 9 10 10 10 9 10 10 10 10 10 9 9 9 9 9 10 10 10
6 7 7 7 7 7 7 7 7 7 7 8 8 8 8 9 9 9 9 9 10 10 10 9 10 10 10 11 11 10 9 9 9 9 9 9 10 10
Wind_Speed
9 10 10 9 9 9 9 9 9 9 8 7 6 5 5 3 3 2 3 7 5 4 3 2 3 3 4 6 7 8 10 13 16 18 19 21 22 23
8 9 9 9 8 8 9 9 10 10 9 5 5 6 5 3 4 2 4 8 6 5 4 3 3 2 2 3 4 5 7 9 11 13 16 18 19 20
8 9 10 10 9 8 8 9 10 10 10 8 6 5 6 5 5 4 5 4 6 8 6 5 4 3 2 2 1 3 4 6 7 9 11 14 15 17
11 10 9 9 10 9 8 10 9 9 10 10 7 6 7 7 6 5 4 4 5 10 8 7 7 6 5 4 2 1 1 2 3 4 6 8 11 12
12 12 11 10 10 9 10 9 8 9 9 9 9 6 5 6 6 6 6 5 6 9 10 9 9 8 8 7 6 4 3 3 4 4 4 4 5 6
13 13 12 12 12 11 10 10 10 9 9 9 9 8 6 6 7 6 6 5 5 6 7 8 10 10 10 9 8 7 6 6 7 8 9 10 10 10
15 14 14 13 11 10 10 10 10 10 10 10 10 9 8 8 8 7 7 6 5 5 6 5 6 6 7 8 9 9 10 10 11 12 13 14 15 15
15 15 15 14 13 13 12 11 11 11 11 10 10 11 11 10 9 9 8 8 5 6 6 4 4 5 5 7 9 10 12 13 13 14 16 17 18 18
15 15 14 14 15 15 16 16 15 15 14 12 12 12 11 11 12 12 11 11 7 9 8 5 5 6 6 10 11 12 13 14 15 17 18 19 20 20
16 16 15 14 14 14 14 15 15 16 17 15 14 13 11 10 13 13 12 8 7 7 7 5 6 6 7 9 11 12 14 15 17 18 20 21 22 22
17 17 16 16 13 12 14 14 14 14 14 13 11 9 7 6 8 9 11 11 8 7 6 6 7 7 7 7 10 13 14 15 17 18 20 22 24 23
15 15 15 15 12 14 15 15 15 14 13 12 12 11 12 11 12 13 13 13 10 7 8 7 10 8 6 5 7 9 11 13 15 16 16 15 13 12
13 13 13 16 15 14 14 15 13 11 12 12 12 12 12 12 13 14 13 13 13 8 12 11 11 8 7 7 6 7 9 10 11 11 10 8 6 6
12 11 9 14 16 15 14 13 9 9 11 11 11 11 11 12 12 13 13 10 7 9 15 13 10 10 11 11 8 8 9 10 10 9 10 9 9 12
10 6 4 10 12 12 14 12 11 12 12 12 12 11 10 11 11 11 10 8 7 9 14 12 11 11 11 11 11 11 10 9 9 9 9 9 8 9
12 8 9 10 10 8 9 12 12 12 12 12 11 10 9 10 11 11 11 11 10 9 10 12 11 12 10 12 13 13 12 10 10 9 9 8 9 9
10 10 10 10 11 11 11 11 12 12 12 11 10 10 10 10 11 12 12 12 10 11 11 10 9 8 8 10 13 13 12 11 11 10 9 9 8 8
7 9 10 11 12 12 11 11 11 12 12 11 11 11 10 11 11 12 13 13 13 12 12 12 12 10 9 6 7 12 11 11 11 11 9 9 9 8
9 10 10 11 11 10 10 10 11 11 10 10 11 10 11 11 12 13 13 13 13 13 13 13 14 13 14 12 7 6 10 11 11 11 9 8 8 9
8 9 9 10 9 9 9 9 9 9 9 9 10 10 11 12 13 13 13 14 13 13 13 13 13 12 11 11 10 10 10 11 11 10 10 8 6 7
7 8 8 8 8 8 8 8 9 9 9 9 9 10 11 12 13 13 13 16 14 13 14 13 10 9 8 9 11 11 10 6 4 7 10 10 9 9
6 6 6 6 6 6 7 7 8 8 9 9 9 10 11 12 14 15 15 15 13 13 14 12 11 10 10 11 12 13 12 10 5 1 1 2 6 8
4 5 5 5 6 6 6 7 8 8 8 9 9 10 11 12 13 13 15 15 14 15 15 14 12 11 10 11 12 12 14 13 11 10 9 8 5 3
Wind_Direction
251 244 244 245 242 242 239 241 243 243 231 202 209 187 193 175 150 206 150 118 124 129 140 163 186 199 208 214 217 224 230 231 231 230 228 227 227 227
250 250 246 247 241 238 237 238 240 247 251 226 205 193 189 187 160 168 125 123 116 120 119 118 131 152 175 201 216 224 230 231 232 231 226 225 226 226
248 246 243 246 245 240 236 234 234 236 241 240 221 196 192 207 173 167 160 156 122 114 107 102 103 108 117 132 181 223 232 234 234 232 230 227 224 223
240 241 246 243 238 239 239 239 236 233 236 238 231 213 206 200 181 175 164 146 121 108 103 98 94 90 86 82 83 109 206 212 212 219 222 220 218 218
241 238 237 239 242 239 235 236 237 233 231 234 232 221 209 194 178 172 155 139 130 125 115 105 95 88 80 73 72 78 94 115 125 127 131 148 161 169
242 240 238 234 236 236 236 235 235 236 230 230 230 219 209 195 184 176 164 157 147 135 110 107 104 95 83 72 71 77 88 98 105 106 105 107 109 110
238 237 236 234 235 234 238 235 231 231 228 226 226 220 210 195 194 188 176 157 142 151 140 130 127 111 97 84 76 79 89 95 99 102 103 102 102 104
236 237 237 229 223 219 234 244 246 239 235 230 226 222 214 204 195 188 174 172 167 167 152 131 125 109 97 84 75 83 90 97 100 101 101 100 100 99
236 235 237 232 218 226 221 224 234 239 243 243 241 233 218 206 196 190 190 191 179 162 155 136 129 107 96 83 82 87 92 97 100 100 101 101 99 97
236 232 234 240 233 228 230 228 229 228 226 229 238 239 235 216 201 195 186 171 142 153 159 140 135 118 104 97 88 91 96 100 103 105 104 103 99 96
234 232 230 232 225 216 232 237 237 234 226 225 236 240 245 225 196 183 172 165 159 161 169 145 142 126 115 111 102 96 99 102 106 108 110 110 108 102
230 231 228 232 220 201 227 234 235 233 231 218 215 221 224 211 193 192 184 178 166 160 171 155 154 146 127 125 130 130 116 107 109 112 117 121 125 117
228 227 226 200 207 204 223 237 238 237 231 227 220 215 210 206 200 197 196 188 180 171 169 167 166 166 145 145 148 150 145 142 136 128 120 104 82 109
234 235 227 179 191 200 216 234 237 231 232 228 224 217 207 201 196 193 193 194 189 173 168 170 167 169 152 150 152 159 157 156 155 150 144 126 97 85
239 239 188 165 182 204 219 219 218 225 226 225 221 218 210 198 187 179 172 160 148 153 164 172 165 165 162 158 156 160 160 162 162 156 156 158 154 148
235 214 183 183 215 231 203 206 219 223 223 224 221 215 203 189 182 172 164 156 151 150 160 168 164 165 166 157 156 160 163 164 166 164 161 158 160 158
216 216 215 209 211 214 215 210 210 211 216 220 216 206 195 187 179 170 165 160 158 157 156 158 155 158 156 157 161 164 165 162 163 160 165 161 164 166
213 219 217 215 215 212 210 210 209 210 210 210 206 199 191 184 174 167 165 163 159 157 156 157 155 152 151 149 160 165 164 161 159 166 176 169 168 170
216 223 221 218 217 214 211 211 208 206 204 202 198 192 185 178 169 164 163 161 158 157 158 159 162 163 163 159 161 185 166 160 162 171 182 179 176 173
222 223 222 218 216 214 211 210 204 199 195 193 190 186 180 173 167 164 163 162 158 156 158 163 169 174 172 160 157 166 177 169 171 176 180 184 160 120
216 221 222 217 212 209 207 204 200 195 189 185 184 180 176 168 165 163 161 158 157 159 161 164 166 168 154 145 151 159 166 161 158 181 182 182 179 184
219 219 220 215 208 203 197 194 188 184 181 179 175 171 168 164 161 162 161 160 160 159 158 155 158 165 163 164 161 159 164 168 159 102 255 241 204 201
218 216 213 210 201 191 188 184 179 174 172 170 167 163 160 158 156 159 158 157 157 155 153 154 161 168 168 167 163 162 165 173 182 190 204 207 216 215
Height
1476 1477 1479 1482 1484 1486 1488 1491 1493 1493 1493 1494 1496 1496 1497 1498 1498 1499 1499 1500 1501 1503 1504 1505 1507 1508 1509 1511 1513 1515 1516 1518 1520 1522 1523 1526 1528 1530
1470 1471 1473 1476 1477 1480 1482 1485 1487 1489 1489 1490 1492 1493 1493 1495 1495 1496 1496 1497 1498 1499 1500 1502 1503 1504 1506 1507 1508 1510 1511 1513 1514 1516 1517 1519 1521 1523
1464 1465 1467 1469 1471 1473 1475 1478 1480 1483 1484 1486 1488 1489 1489 1490 1491 1492 1493 1494 1495 1496 1497 1498 1500 1501 1502 1503 1504 1506 1507 1508 1509 1510 1512 1513 1515 1517
1459 1459 1461 1463 1464 1466 1469 1471 1474 1476 1479 1481 1483 1485 1485 1486 1488 1489 1491 1492 1492 1493 1494 1496 1497 1498 1499 1500 1501 1502 1503 1504 1505 1506 1507 1508 1509 1511
1453 1454 1455 1456 1458 1460 1462 1465 1467 1470 1472 1474 1477 1479 1481 1482 1484 1486 1487 1489 1490 1491 1492 1493 1494 1496 1496 1497 1498 1499 1500 1501 1502 1502 1503 1504 1505 1506
1447 1448 1450 1451 1452 1454 1456 1458 1461 1464 1466 1468 1471 1474 1476 1478 1480 1482 1484 1486 1488 1489 1490 1491 1492 1493 1494 1495 1496 1496 1497 1498 1499 1500 1501 1501 1502 1504
1440 1442 1443 1445 1446 1448 1451 1453 1456 1458 1460 1462 1465 1468 1470 1473 1475 1478 1481 1483 1485 1487 1488 1490 1491 1492 1493 1493 1494 1494 1495 1496 1498 1499 1500 1500 1501 1502
1433 1435 1437 1438 1440 1442 1444 1447 1449 1452 1454 1456 1458 1461 1464 1467 1471 1474 1476 1479 1482 1484 1486 1488 1490 1491 1492 1492 1493 1494 1495 1496 1497 1498 1499 1500 1501 1502
1426 1428 1430 1432 1434 1436 1437 1439 1442 1444 1447 1450 1452 1455 1458 1461 1465 1468 1471 1475 1478 1480 1484 1486 1488 1489 1491 1491 1493 1494 1495 1496 1497 1498 1499 1500 1502 1503
1419 1421 1423 1425 1428 1430 1432 1434 1435 1437 1440 1443 1445 1449 1453 1456 1460 1463 1467 1471 1475 1478 1481 1484 1486 1488 1490 1491 1493 1494 1495 1497 1498 1499 1500 1501 1503 1504
1411 1413 1416 1418 1421 1423 1425 1427 1429 1431 1434 1437 1439 1442 1446 1450 1454 1458 1461 1466 1469 1473 1477 1481 1484 1487 1489 1491 1493 1495 1496 1498 1499 1500 1502 1503 1504 1505
1403 1405 1408 1411 1414 1415 1418 1421 1423 1425 1428 1430 1433 1436 1440 1444 1448 1452 1456 1460 1464 1468 1472 1477 1480 1484 1488 1491 1493 1495 1497 1499 1500 1501 1503 1504 1506 1508
1396 1398 1401 1403 1406 1409 1411 1414 1416 1420 1422 1425 1427 1430 1433 1437 1441 1446 1450 1455 1459 1463 1467 1472 1477 1481 1484 1489 1493 1495 1497 1499 1501 1502 1504 1506 1507 1510
1390 1393 1395 1397 1399 1402 1405 1407 1410 1413 1416 1419 1421 1424 1427 1431 1435 1440 1445 1450 1455 1459 1463 1468 1472 1477 1481 1485 1490 1494 1497 1500 1502 1504 1505 1507 1509 1511
1384 1387 1389 1391 1393 1396 1398 1401 1404 1407 1410 1412 1415 1418 1421 1425 1430 1435 1440 1445 1450 1455 1460 1465 1470 1474 1479 1483 1486 1491 1495 1500 1502 1504 1506 1508 1510 1512
1378 1381 1383 1385 1388 1390 1392 1394 1396 1400 1403 1406 1409 1413 1416 1420 1425 1429 1434 1440 1446 1452 1457 1462 1468 1473 1478 1482 1486 1490 1494 1497 1501 1504 1507 1509 1511 1513
1373 1375 1377 1379 1381 1384 1386 1388 1391 1394 1397 1400 1403 1407 1411 1415 1419 1425 1430 1435 1441 1447 1454 1460 1466 1472 1477 1481 1485 1489 1493 1497 1500 1503 1506 1509 1511 1513
1368 1369 1371 1373 1375 1378 1380 1382 1385 1387 1391 1394 1398 1402 1405 1410 1414 1420 1425 1432 1438 1444 1450 1457 1463 1470 1476 1481 1484 1488 1492 1495 1498 1501 1505 1508 1510 1512
1362 1364 1366 1368 1370 1372 1374 1377 1379 1382 1385 1388 1392 1396 1401 1406 1410 1416 1422 1428 1435 1442 1448 1454 1460 1466 1471 1476 1482 1487 1490 1493 1497 1500 1504 1507 1510 1512
1357 1359 1361 1363 1365 1367 1369 1372 1374 1377 1380 1384 1388 1392 1397 1402 1407 1413 1420 1426 1433 1440 1447 1453 1459 1465 1469 1474 1479 1484 1489 1492 1496 1499 1503 1506 1509 1510
1354 1355 1357 1359 1360 1363 1365 1367 1370 1373 1376 1380 1384 1388 1393 1399 1405 1411 1418 1425 1431 1438 1445 1452 1458 1465 1469 1474 1478 1483 1487 1491 1495 1498 1502 1505 1507 1508
1351 1352 1354 1355 1357 1359 1361 1364 1367 1370 1374 1377 1381 1386 1391 1397 1403 1410 1417 1424 1431 1438 1445 1452 1458 1464 1469 1473 1477 1481 1486 1489 1493 1496 1499 1502 1505 1507
1349 1350 1351 1353 1354 1356 1358 1361 1364 1368 1371 1376 1380 1385 1390 1396 1403 1410 1417 1424 1431 1437 1444 1451 1458 1463 1468 1472 1476 1480 1484 1488 1491 1495 1498 1500 1502 1504